| time (UTC) | temp F | wind direction | speed knots | gust knots | rain 1hr in | rain 24hr in | rain mn in | humidity % | barometer mb |
| 20260504003030 | 87 | 46 | 0.9 | 4.3 | 0.00 | 0.00 | 0.00 | 30 | 1008.0 |
| 20260504002031 | 87 | 58 | 0.9 | 5.2 | 0.00 | 0.00 | 0.00 | 29 | 1008.1 |
| 20260504001030 | 86 | 46 | 4.3 | 9.6 | 0.00 | 0.00 | 0.00 | 31 | 1008.2 |
| 20260504000031 | 87 | 80 | 3.5 | 9.6 | 0.00 | 0.00 | 0.00 | 31 | 1008.3 |
| 20260503235031 | 87 | 47 | 0.9 | 4.3 | 0.00 | 0.00 | 0.00 | 30 | 1008.4 |
| 20260503234050 | 87 | 53 | 3.5 | 7.8 | 0.00 | 0.00 | 0.00 | 30 | 1008.5 |
| 20260503233031 | 86 | 178 | 2.6 | 7.0 | 0.00 | 0.00 | 0.00 | 30 | 1008.7 |
| 20260503232051 | 87 | 53 | 1.7 | 7.0 | 0.00 | 0.00 | 0.00 | 29 | 1008.8 |
| 20260503231031 | 87 | 73 | 0.0 | 1.7 | 0.00 | 0.00 | 0.00 | 29 | 1008.9 |
| 20260503230031 | 87 | 60 | 4.3 | 7.8 | 0.00 | 0.00 | 0.00 | 30 | 1009.0 |
| 20260503225032 | 87 | 310 | 0.9 | 5.2 | 0.00 | 0.00 | 0.00 | 30 | 1009.2 |
| 20260503224031 | 87 | 329 | 3.5 | 13.0 | 0.00 | 0.00 | 0.00 | 31 | 1009.3 |
| 20260503223051 | 87 | 284 | 1.7 | 6.1 | 0.00 | 0.00 | 0.00 | 31 | 1009.5 |
| 20260503222032 | 87 | 304 | 2.6 | 7.8 | 0.00 | 0.00 | 0.00 | 31 | 1009.5 |
| 20260503221032 | 87 | 251 | 0.9 | 5.2 | 0.00 | 0.00 | 0.00 | 29 | 1009.6 |
| 20260503220053 | 87 | 304 | 1.7 | 6.1 | 0.00 | 0.00 | 0.00 | 30 | 1009.8 |
| 20260503215034 | 86 | 299 | 1.7 | 5.2 | 0.00 | 0.00 | 0.00 | 29 | 1009.9 |
| 20260503214032 | 86 | 56 | 1.7 | 5.2 | 0.00 | 0.00 | 0.00 | 30 | 1010.1 |
| 20260503213032 | 85 | 59 | 2.6 | 10.4 | 0.00 | 0.00 | 0.00 | 31 | 1010.3 |
| 20260503212032 | 86 | 11 | 0.9 | 4.3 | 0.00 | 0.00 | 0.00 | 30 | 1010.4 |
| 20260503211053 | 85 | 305 | 0.9 | 4.3 | 0.00 | 0.00 | 0.00 | 30 | 1010.5 |
| 20260503210033 | 85 | 48 | 2.6 | 8.7 | 0.00 | 0.00 | 0.00 | 31 | 1010.6 |
| 20260503205052 | 84 | 252 | 3.5 | 7.0 | 0.00 | 0.00 | 0.00 | 30 | 1010.8 |
| 20260503204033 | 83 | 63 | 0.9 | 4.3 | 0.00 | 0.00 | 0.00 | 32 | 1011.0 |
| 20260503203033 | 83 | 47 | 4.3 | 12.2 | 0.00 | 0.00 | 0.00 | 34 | 1011.0 |
| 20260503202033 | 83 | 75 | 0.9 | 5.2 | 0.00 | 0.00 | 0.00 | 32 | 1011.1 |
| 20260503201033 | 82 | 34 | 2.6 | 8.7 | 0.00 | 0.00 | 0.00 | 33 | 1011.2 |
| 20260503200053 | 82 | 47 | 4.3 | 11.3 | 0.00 | 0.00 | 0.00 | 35 | 1011.4 |
| 20260503195034 | 82 | 44 | 2.6 | 10.4 | 0.00 | 0.00 | 0.00 | 36 | 1011.5 |
| 20260503194055 | 82 | 15 | 1.7 | 7.8 | 0.00 | 0.00 | 0.00 | 36 | 1011.7 |
| 20260503193033 | 82 | 121 | 1.7 | 6.1 | 0.00 | 0.00 | 0.00 | 36 | 1011.8 |
| 20260503192054 | 81 | 43 | 0.9 | 4.3 | 0.00 | 0.00 | 0.00 | 36 | 1011.9 |
| 20260503191034 | 80 | 58 | 1.7 | 5.2 | 0.00 | 0.00 | 0.00 | 39 | 1012.1 |
| 20260503190034 | 80 | 58 | 2.6 | 6.1 | 0.00 | 0.00 | 0.00 | 38 | 1012.2 |
| 20260503185034 | 80 | 64 | 1.7 | 5.2 | 0.00 | 0.00 | 0.00 | 38 | 1012.2 |
| 20260503184034 | 80 | 59 | 1.7 | 6.1 | 0.00 | 0.00 | 0.00 | 39 | 1012.3 |
| 20260503183034 | 79 | 116 | 0.9 | 3.5 | 0.00 | 0.00 | 0.00 | 38 | 1012.5 |
| 20260503182035 | 79 | 256 | 3.5 | 7.0 | 0.00 | 0.00 | 0.00 | 39 | 1012.5 |
| 20260503181034 | 79 | 269 | 2.6 | 6.1 | 0.00 | 0.00 | 0.00 | 39 | 1012.7 |
| 20260503180035 | 77 | 300 | 2.6 | 7.0 | 0.00 | 0.00 | 0.00 | 39 | 1012.8 |
| 20260503175035 | 76 | 291 | 3.5 | 7.8 | 0.00 | 0.00 | 0.00 | 42 | 1012.8 |
| 20260503174035 | 76 | 300 | 3.5 | 7.8 | 0.00 | 0.00 | 0.00 | 43 | 1012.9 |
| 20260503173035 | 75 | 308 | 1.7 | 6.1 | 0.00 | 0.00 | 0.00 | 44 | 1013.0 |
| 20260503172035 | 75 | 266 | 3.5 | 7.8 | 0.00 | 0.00 | 0.00 | 43 | 1013.1 |
| 20260503171036 | 74 | 273 | 3.5 | 7.0 | 0.00 | 0.00 | 0.00 | 44 | 1013.1 |
| 20260503131038 | 47 | 0.0 | 0.0 | 0.00 | 0.00 | 0.00 | 84 | 1013.0 | |
| 20260503081042 | 58 | 201 | 1.7 | 10.4 | 0.00 | 0.00 | 0.00 | 60 | 1012.8 |
| 20260503072042 | 59 | 250 | 0.9 | 2.6 | 0.00 | 0.00 | 0.00 | 61 | 1012.6 |
| 20260503071042 | 59 | 277 | 1.7 | 3.5 | 0.00 | 0.00 | 0.00 | 61 | 1012.4 |
| 20260503055103 | 60 | 301 | 0.9 | 2.6 | 0.00 | 0.00 | 0.00 | 63 | 1011.8 |
| 20260503054043 | 60 | 288 | 0.9 | 1.7 | 0.00 | 0.00 | 0.00 | 61 | 1011.9 |
| 20260503053103 | 60 | 282 | 0.9 | 2.6 | 0.00 | 0.00 | 0.00 | 59 | 1011.8 |
| 20260503052103 | 61 | 295 | 0.9 | 2.6 | 0.00 | 0.00 | 0.00 | 59 | 1011.8 |
| 20260503051043 | 62 | 193 | 0.9 | 2.6 | 0.00 | 0.00 | 0.00 | 58 | 1011.7 |
| 20260503050044 | 63 | 200 | 0.9 | 3.5 | 0.00 | 0.00 | 0.00 | 54 | 1011.7 |
| 20260503045047 | 64 | 299 | 0.0 | 1.7 | 0.00 | 0.00 | 0.00 | 54 | 1011.7 |
| 20260503044047 | 65 | 10 | 0.9 | 5.2 | 0.00 | 0.00 | 0.00 | 53 | 1011.6 |
| 20260503043106 | 66 | 291 | 0.9 | 1.7 | 0.00 | 0.00 | 0.00 | 51 | 1011.5 |
| 20260503042104 | 67 | 244 | 0.9 | 1.7 | 0.00 | 0.00 | 0.00 | 47 | 1011.4 |
| 20260503041105 | 69 | 255 | 0.9 | 2.6 | 0.00 | 0.00 | 0.00 | 46 | 1011.3 |
| 20260503040047 | 69 | 168 | 0.9 | 4.3 | 0.00 | 0.00 | 0.00 | 45 | 1011.2 |
| 20260503035046 | 69 | 177 | 0.9 | 4.3 | 0.00 | 0.00 | 0.00 | 44 | 1011.1 |
| 20260503034044 | 71 | 274 | 1.7 | 2.6 | 0.00 | 0.00 | 0.00 | 46 | 1010.9 |
| 20260503033105 | 72 | 256 | 0.9 | 2.6 | 0.00 | 0.00 | 0.00 | 43 | 1010.7 |
| 20260503032046 | 74 | 249 | 1.7 | 2.6 | 0.00 | 0.00 | 0.00 | 45 | 1010.5 |
| 20260503031045 | 76 | 132 | 0.0 | 2.6 | 0.00 | 0.00 | 0.00 | 42 | 1010.4 |
| 20260503030045 | 78 | 146 | 0.0 | 1.7 | 0.00 | 0.00 | 0.00 | 39 | 1010.3 |
| 20260503025105 | 80 | 0.0 | 0.0 | 0.00 | 0.00 | 0.00 | 37 | 1010.2 | |
| 20260503024105 | 82 | 214 | 0.0 | 0.9 | 0.00 | 0.00 | 0.00 | 36 | 1010.1 |
| 20260503023046 | 83 | 98 | 0.0 | 0.9 | 0.00 | 0.00 | 0.00 | 35 | 1010.0 |
| 20260503022046 | 83 | 0.0 | 0.0 | 0.00 | 0.00 | 0.00 | 35 | 1010.0 | |
| 20260503021106 | 84 | 71 | 0.0 | 2.6 | 0.00 | 0.00 | 0.00 | 35 | 1010.0 |
| 20260503020046 | 84 | 48 | 0.9 | 3.5 | 0.00 | 0.00 | 0.00 | 35 | 1009.9 |
| 20260503015106 | 84 | 40 | 1.7 | 6.1 | 0.00 | 0.00 | 0.00 | 33 | 1009.9 |
| 20260503014046 | 84 | 44 | 2.6 | 8.7 | 0.00 | 0.00 | 0.00 | 34 | 1009.9 |
| 20260503013047 | 84 | 43 | 2.6 | 5.2 | 0.00 | 0.00 | 0.00 | 33 | 1009.8 |
| 20260503012046 | 84 | 47 | 4.3 | 8.7 | 0.00 | 0.00 | 0.00 | 32 | 1009.8 |
| 20260503011046 | 83 | 41 | 3.5 | 10.4 | 0.00 | 0.00 | 0.00 | 33 | 1009.9 |
| 20260503010047 | 84 | 46 | 3.5 | 8.7 | 0.00 | 0.00 | 0.00 | 32 | 1009.9 |
| 20260503005047 | 84 | 43 | 3.5 | 10.4 | 0.00 | 0.00 | 0.00 | 33 | 1009.9 |
| 20260503004107 | 85 | 41 | 3.5 | 9.6 | 0.00 | 0.00 | 0.00 | 33 | 1009.9 |